[[{"header":{"parameterUnit":"m.s-1","parameterCategory":1,"la1":30.2991,"la2":30.254,"lo1":-89.0895,"lo2":-89.0444,"dy":0.0017,"dx":0.0017,"nx":28,"ny":28,"refTime":"2023-08-18T21:00:00:Z","depth":0,"parameterNumber":2,"parameterNumberName":"U-component_of_WINDS"},"data":[0,0,0,0,0,0,0,0,0,0,0,0,0,0,0,0,0,0,0,0,0,0,0,0,0,0,0,0,0,0,0,0,0,0,0,0,0,0,0,0,0,0,0,0,0,0,0,0,0,0,0,0,0,0,0,0,0,0,1.0514,1.0516,0,1.0658,1.0659,1.0661,1.0673,1.0671,1.067,1.0668,1.0817,1.0822,1.0828,0,0,0,0,0,0,0,0,0,0,0,0,0,1.0252,1.0257,1.0514,1.0516,1.0518,1.0657,1.0659,1.0661,1.0673,1.0671,1.0669,1.0667,1.0815,1.0822,1.0828,0,0,0,0,0,0,0,0,0,0,0,0,0,1.0378,1.0258,1.0514,1.054,1.0544,1.0657,1.066,1.0662,1.0673,1.0671,1.0669,1.0667,1.0813,1.0821,1.0829,1.0926,0,0,1.0854,1.0858,0,0,0,0,0,0,0,0,1.0371,1.0387,1.0535,1.0539,1.0543,1.0645,1.0622,1.0751,1.0674,1.0624,1.0668,1.0665,1.0762,1.0774,1.0806,1.0933,1.094,1.0855,1.086,1.0863,1.0866,0,0,0,0,0,0,0,1.0362,1.0381,1.0571,1.0537,1.0542,1.0546,1.0561,1.0646,1.0705,1.0629,1.063,1.0646,1.0764,1.0798,1.081,1.0942,1.0855,1.0862,1.0867,1.087,1.1156,1.1158,0,0,0,0,0,0,1.0348,1.0374,1.0566,1.0575,1.0449,1.0552,1.0569,1.0615,1.0704,1.0715,1.0648,1.0646,1.0786,1.08,1.0815,1.0935,1.0863,1.0871,1.0875,1.1153,1.1156,1.1159,0,0,0,0,0,0,1.0342,1.0365,1.0561,1.0475,1.05,1.0559,1.061,1.0619,1.0653,1.0719,1.0729,1.0673,1.0784,1.0804,1.0898,1.094,1.0874,1.0882,1.115,1.1154,1.1158,1.1174,0,0,0,0,0,0,1.0335,1.0363,1.04,1.0476,1.0505,1.0641,1.0613,1.0623,1.0667,1.0666,1.0744,1.0755,1.0784,1.0886,1.0906,1.095,1.0888,1.1146,1.1152,1.1156,1.117,1.1178,1.1185,0,0,0,0,0,1.0325,1.0399,1.0402,1.0425,1.0552,1.0643,1.066,1.0691,1.067,1.0708,1.075,1.0753,1.0932,1.0896,1.0919,1.0965,1.1144,1.115,1.1156,1.1167,1.1177,1.1185,0,0,0,0,0,0,1.0327,1.041,1.0413,1.0514,1.0571,1.0645,1.0694,1.0701,1.0766,1.0762,1.0799,1.0816,1.091,1.0947,1.0905,1.1064,1.1036,1.1047,1.1036,1.1046,1.1053,1.1042,1.0895,0,0,0,0,0,1.0339,1.0406,1.0475,1.0557,1.0585,1.0635,1.0676,1.0695,1.0756,1.0781,1.0829,1.0889,1.0959,1.1005,1.1073,1.1175,1.1193,1.1219,1.1226,1.1232,1.1241,1.1298,1.1311,1.1179,1.1179,1.1179,0,0,1.0365,1.0418,1.0458,1.0558,1.0605,1.0674,1.0655,1.0729,1.078,1.0792,1.0884,1.0922,1.0992,1.1091,1.1137,1.1125,1.1281,1.124,1.1244,1.125,1.1306,1.1318,1.1329,1.1183,1.1182,1.1182,0,0,1.0447,1.0494,1.0568,1.0615,1.0686,1.0718,1.0736,1.0809,1.0834,1.0927,1.0937,1.0999,1.1119,1.1168,1.1209,1.1309,1.1314,1.133,1.137,1.1425,1.1435,1.1445,1.148,1.1493,1.1339,1.1339,1.1339,0,1.0471,1.0574,1.0605,1.0678,1.0722,1.0735,1.081,1.0855,1.0944,1.0975,1.096,1.111,1.1157,1.1268,1.1293,1.1325,1.1347,1.1322,1.1431,1.1441,1.145,1.1485,1.1498,1.1341,1.134,1.134,1.134,0,1.0599,1.0671,1.0722,1.0807,1.0857,1.0931,1.0973,1.102,1.1035,1.1069,1.1163,1.1221,1.1301,1.1328,1.1344,1.1441,1.1432,1.1423,1.1396,1.1464,1.1497,1.151,1.1343,1.1342,1.1342,1.1341,0,0,1.0687,1.0788,1.0807,1.0845,1.0925,1.0981,1.1055,1.1133,1.1172,1.1234,1.1297,1.1398,1.1391,1.1437,1.1458,1.1506,1.1582,1.1492,1.1494,1.1507,1.1694,1.1699,1.1714,1.1586,1.1588,1.159,1.1688,0,1.0778,1.091,1.094,1.1054,1.1121,1.1134,1.1199,1.1255,1.1289,1.1351,1.1388,1.1459,1.1444,1.1472,1.1521,1.1562,1.162,1.1556,1.1646,1.1648,1.1628,1.1731,1.1738,1.1827,1.1701,1.1703,1.1705,0,1.0902,1.0965,1.1086,1.1156,1.1185,1.1243,1.1316,1.1375,1.1439,1.146,1.1511,1.1527,1.1606,1.1574,1.1683,1.1639,1.1677,1.1703,1.1707,1.1717,1.1681,1.1744,1.1856,1.1869,1.1725,1.1724,1.1722,0,1.0954,1.107,1.1157,1.119,1.1274,1.1314,1.1351,1.1412,1.1457,1.1521,1.1551,1.1623,1.1663,1.1719,1.1755,1.1728,1.1861,1.1832,1.1881,1.188,1.1908,1.1906,1.2028,1.1933,1.1933,1.1932,1.1932,0,1.1052,1.1125,1.1181,1.1234,1.1317,1.1351,1.1432,1.1469,1.1524,1.1585,1.1601,1.1658,1.1701,1.1765,1.1793,1.1879,1.1897,1.1916,1.1923,1.1915,1.1913,1.1941,1.1936,1.1936,1.1935,1.1935,1.1934,0,1.1124,1.1164,1.126,1.1332,1.1351,1.1409,1.1471,1.1523,1.1557,1.1635,1.1655,1.1708,1.1784,1.1824,1.1919,1.1938,1.2034,1.2038,1.2013,1.2015,1.2062,1.2057,1.2207,1.2228,1.2118,1.2119,1.212,0,1.1184,1.1241,1.1318,1.136,1.1398,1.1466,1.1511,1.1547,1.1593,1.167,1.1714,1.179,1.1853,1.1973,1.202,1.2093,1.2098,1.2146,1.2109,1.2099,1.2099,1.2095,1.2101,1.2152,1.2153,1.2154,1.2154,0,1.1287,1.1304,1.1368,1.144,1.1494,1.1552,1.1609,1.1643,1.1688,1.174,1.1817,1.1866,1.1962,1.2038,1.2114,1.2153,1.2161,1.2165,1.2181,1.2173,1.2156,1.2166,1.203,1.2162,1.2161,1.2161,1.216,1.216,1.1355,1.1406,1.1468,1.154,1.1587,1.164,1.1693,1.1733,1.1798,1.1879,1.1896,1.1978,1.204,1.2143,1.2184,1.2248,1.2239,1.2261,1.2267,1.2272,1.2273,1.2146,1.2263,1.2262,1.2262,1.2262,1.2262,0,1.1459,1.1499,1.1565,1.1644,1.1701,1.1703,1.1767,1.1814,1.1885,1.1942,1.2004,1.2092,1.2166,1.2219,1.2294,1.2335,1.2341,1.2354,1.2351,1.236,1.2277,1.2257,1.2348,1.2348,1.2348,1.2348,1.2348,1.2347,1.1519,1.1605,1.1629,1.1739,1.178,1.1859,1.1895,1.1945,1.1991,1.2088,1.2149,1.2183,1.2239,1.2318,1.2386,1.2399,1.2426,1.2438,1.2453,1.2375,1.2366,1.2357,1.2338,1.2444,1.2444,1.253,1.253,1.2531]},{"header":{"parameterUnit":"m.s-1","parameterCategory":1,"la1":30.2991,"la2":30.254,"lo1":-89.0895,"lo2":-89.0444,"dy":0.0017,"dx":0.0017,"nx":28,"ny":28,"refTime":"2023-08-18T21:00:00:Z","depth":0,"parameterNumber":3,"parameterNumberName":"V-component_of_WINDS"},"data":[0,0,0,0,0,0,0,0,0,0,0,0,0,0,0,0,0,0,0,0,0,0,0,0,0,0,0,0,0,0,0,0,0,0,0,0,0,0,0,0,0,0,0,0,0,0,0,0,0,0,0,0,0,0,0,0,0,0,2.0141,2.0141,0,2.0085,2.0085,2.0084,2.0037,2.0036,2.0036,2.0035,1.9976,1.9975,1.9974,0,0,0,0,0,0,0,0,0,0,0,0,0,2.0204,2.0203,2.0141,2.0141,2.014,2.0086,2.0085,2.0084,2.0037,2.0036,2.0035,2.0035,1.9976,1.9975,1.9974,0,0,0,0,0,0,0,0,0,0,0,0,0,2.0166,2.0203,2.0141,2.011,2.0106,2.0086,2.0085,2.0084,2.0037,2.0036,2.0035,2.0035,1.9977,1.9975,1.9973,1.9979,0,0,1.9968,1.9968,0,0,0,0,0,0,0,0,2.0168,2.0163,2.0115,2.0112,2.0108,2.0067,2.0085,2.0049,2.0037,2.0063,2.0035,2.0034,2.0007,2.0003,1.9994,1.9976,1.9974,1.9968,1.9967,1.9967,1.9966,0,0,0,0,0,0,0,2.0171,2.0165,2.0119,2.0114,2.011,2.0097,2.0091,2.0078,2.004,2.0061,2.0057,2.0051,2.0005,1.9995,1.9992,1.9973,1.9968,1.9967,1.9966,1.9965,1.9954,1.9955,0,0,0,0,0,0,2.0178,2.0168,2.0121,2.0117,2.0137,2.0097,2.009,2.0081,2.004,2.0033,2.0052,2.0049,1.9999,1.9994,1.999,1.9992,1.9967,1.9965,1.9964,1.9954,1.9955,1.9955,0,0,0,0,0,0,2.018,2.0175,2.0123,2.0142,2.0134,2.0097,2.0087,2.008,2.0071,2.0033,2.0026,2.005,1.9998,1.9992,1.9982,1.9989,1.9964,1.9963,1.9953,1.9954,1.9955,1.9997,0,0,0,0,0,0,2.0182,2.0176,2.0178,2.0142,2.0133,2.0117,2.0088,2.008,2.0069,2.0065,2.0029,2.0023,1.9997,1.9984,1.998,1.9986,1.9962,1.9952,1.9953,1.9955,1.9994,1.9999,2.0003,0,0,0,0,0,2.0184,2.0192,2.0178,2.0173,2.0136,2.0118,2.0112,2.0083,2.007,2.0071,2.0046,2.0024,1.9989,1.9984,1.9978,1.9984,1.9951,1.9953,1.9955,1.9992,1.9998,2.0003,0,0,0,0,0,0,2.0229,2.0187,2.0171,2.0168,2.0147,2.011,2.011,2.009,2.0072,2.0069,2.0032,2.0025,2.0018,2.0,1.9995,1.9986,1.9967,1.9968,1.9998,2.0003,2.0007,2.0011,1.996,0,0,0,0,0,2.0239,2.0228,2.0191,2.0192,2.0182,2.0148,2.0139,2.0118,2.0095,2.0086,2.006,2.0038,2.0021,2.0011,1.9995,1.9992,1.9982,1.9993,1.9998,2.0001,2.0002,1.9997,2.0001,1.996,1.996,1.996,0,0,2.0258,2.0234,2.0229,2.02,2.0181,2.017,2.0141,2.0131,2.0122,2.0084,2.0072,2.0053,2.0025,2.0018,2.0014,2.0003,2.0011,2.0003,2.0007,2.0005,1.9999,2.0003,2.0006,1.9962,1.9961,1.9961,0,0,2.0287,2.0268,2.0266,2.0247,2.022,2.0197,2.0196,2.0162,2.0148,2.0136,2.0107,2.0095,2.0068,2.0049,2.0036,2.0057,2.0034,2.0053,2.0074,2.007,2.0073,2.0075,2.0081,2.0083,2.0053,2.0053,2.0054,0,2.0314,2.0297,2.0267,2.0258,2.0245,2.0211,2.0207,2.019,2.0158,2.015,2.0139,2.0103,2.0083,2.0069,2.0074,2.0066,2.0062,2.0056,2.0075,2.0077,2.0079,2.0084,2.0086,2.0056,2.0055,2.0055,2.0055,0,2.033,2.0319,2.032,2.029,2.0277,2.0271,2.0239,2.023,2.021,2.0188,2.0175,2.0149,2.0125,2.0121,2.0102,2.0105,2.0099,2.0082,2.0062,2.0086,2.0089,2.0091,2.0059,2.0058,2.0057,2.0057,0,0,2.0385,2.0338,2.0339,2.0324,2.0291,2.0281,2.0272,2.025,2.0241,2.0221,2.0211,2.0189,2.0173,2.0158,2.0136,2.0133,2.0148,2.0116,2.0115,2.0121,2.0147,2.0159,2.0162,2.0134,2.0134,2.0135,2.0149,0,2.0407,2.039,2.0362,2.0354,2.0342,2.0309,2.0302,2.028,2.0259,2.0245,2.0222,2.0206,2.0187,2.0177,2.0173,2.0148,2.0153,2.0146,2.0123,2.0123,2.0129,2.0164,2.0176,2.0191,2.015,2.0151,2.0151,0,2.043,2.0411,2.0402,2.0368,2.0362,2.0355,2.0331,2.0319,2.0293,2.0278,2.0261,2.0237,2.0225,2.0208,2.0189,2.0186,2.0174,2.0161,2.016,2.0155,2.0137,2.0158,2.0195,2.0197,2.0153,2.0153,2.0153,0,2.0467,2.044,2.043,2.0419,2.038,2.0376,2.0359,2.0333,2.032,2.03,2.0291,2.0269,2.0256,2.0239,2.0209,2.02,2.0193,2.0174,2.0178,2.0179,2.0177,2.0177,2.0211,2.0173,2.0173,2.0173,2.0173,0,2.0493,2.0489,2.0446,2.044,2.0433,2.0402,2.0395,2.0376,2.0352,2.034,2.0311,2.0301,2.0263,2.0248,2.0224,2.0211,2.0206,2.0192,2.0186,2.0194,2.0195,2.0185,2.0182,2.0174,2.0174,2.0174,2.0174,0,2.0534,2.0506,2.0493,2.0457,2.0448,2.0444,2.0413,2.0405,2.0383,2.0369,2.0363,2.0328,2.0309,2.0278,2.0249,2.0233,2.0223,2.0214,2.0232,2.0228,2.0233,2.0233,2.026,2.0261,2.0225,2.0225,2.0226,0,2.0551,2.0546,2.0511,2.0501,2.0486,2.0471,2.0458,2.0427,2.0414,2.0384,2.0379,2.0358,2.0338,2.0308,2.0279,2.0256,2.0245,2.0256,2.0241,2.0249,2.0242,2.0242,2.0241,2.0259,2.0259,2.026,2.026,0,2.0584,2.057,2.0554,2.0532,2.0518,2.0499,2.0479,2.0472,2.0436,2.0423,2.0403,2.0389,2.0359,2.0337,2.031,2.0292,2.0269,2.0266,2.0265,2.0272,2.0282,2.0275,2.0239,2.0265,2.0264,2.0264,2.0264,2.0263,2.0612,2.0606,2.0579,2.0561,2.0543,2.0524,2.0515,2.0492,2.0475,2.0449,2.0431,2.0411,2.0384,2.0346,2.0328,2.0311,2.0302,2.0302,2.0301,2.0301,2.0303,2.0287,2.0307,2.0306,2.0306,2.0306,2.0306,0,2.0641,2.0623,2.0607,2.0579,2.0565,2.0547,2.0523,2.0512,2.0495,2.0472,2.0454,2.043,2.0409,2.0378,2.0354,2.0346,2.0335,2.034,2.034,2.0335,2.0314,2.0316,2.035,2.035,2.035,2.035,2.035,2.035,2.0655,2.0643,2.0626,2.0604,2.0586,2.0567,2.0555,2.0537,2.0518,2.0493,2.0475,2.0456,2.0429,2.0403,2.0381,2.0373,2.0364,2.0373,2.0361,2.0341,2.0337,2.0333,2.0335,2.0372,2.0372,2.0383,2.0383,2.0383]}]]